Location: Ajisawe
(8.4333°N, 4.3833°E)
Time: 23:34:16
(UTC+00:00)

A-11 Canister half - Pass Details

Date: 23 April 2021
Orbit: 1514 x 1685 km, 47.2° (Epoch: 15 May)

Event Time Altitude Azimuth Distance (km) Brightness Sun altitude
Rises 01:42:09 0° 344° (NNW) 4,830 11.8 -53.3°
Reaches altitude 10° 01:47:18 10° 6° (N) 3,878 11.3 -52.2°
Maximum altitude 01:52:31 15° 38° (NE) 3,506 11.2 -51.1°
Drops below altitude 10° 01:57:45 10° 70° (ENE) 3,930 11.6 -50.0°
Sets 02:02:57 0° 92° (E) 4,931 12.2 -48.9°
